x

8413320 - Bar Harbor, Me (atgm1) Weather Station

8:54 - Sat 25th Mar 2017 All times are EDT. -4 hours from GMT.

  • Wind
    9mph, 11mph gusts
  • Sea Temp 35°f
  • Ar Temp 33°f
  • Sea Pressure 1021.4mb
  • 8413320 - Bar Harbor, Me
  • 8413320 - Bar Harbor, Me

More Historic Weather Station data

Upgrade to MSW Pro to gain access to the past 30 days of data for over 8000 Wavebouys and Weather Stations around the globe.

Join Pro

Comparision Forecast

View Surf forecast
   
Sáb 03/25 8:54 9 11 mph 1021.4mb 35f 33f
8:48 9 13 mph 1021.3mb 35f 33f
8:42 9 14 mph 1021.1mb 34f 33f
8:36 10 13 mph 1021.1mb 34f 32f
8:30 9 14 mph 1021mb 34f 32f
8:24 9 14 mph 1020.8mb 34f 32f
8:18 8 11 mph 1020.7mb 35f 32f
8:12 9 11 mph 1020.8mb 35f 32f
8:06 9 11 mph 1020.8mb 35f 32f
8:00 10 11 mph 1020.7mb 35f 32f
7:54 10 13 mph 1020.5mb 35f 32f
7:48 9 11 mph 1020.4mb 35f 32f
7:42 9 10 mph 1020.3mb 35f 32f
7:36 9 11 mph 1020.1mb 35f 31f
7:30 10 11 mph 1020mb 35f 31f
7:24 9 11 mph 1019.9mb 35f 31f
7:18 9 11 mph 1019.8mb 35f 31f
7:12 10 13 mph 1019.7mb 35f 31f
7:06 9 11 mph 1019.7mb 35f 31f
7:00 8 10 mph 1019.7mb 35f 31f
6:54 9 10 mph 1019.8mb 35f 31f
6:48 7 9 mph 1019.6mb 35f 31f
6:42 9 11 mph 1019.5mb 35f 31f
6:36 9 13 mph 1019.4mb 35f 31f
6:30 10 11 mph 1019.3mb 35f 32f
6:24 10 11 mph 1019mb 35f 32f
6:18 10 11 mph 1019mb 35f 32f
6:12 10
mph
1018.9mb 35f 32f
6:06 8 10 mph 1018.8mb 35f 32f
6:00 8 9 mph 1018.6mb 35f 32f
5:54 6 8 mph 1018.3mb 35f 32f
5:48 7 8 mph 1018.3mb 35f 32f
5:42 7 8 mph 1018.3mb 35f 32f
5:36 6 9 mph 1018.1mb 35f 32f
5:30 8 11 mph 1018.2mb 35f 32f
5:24 9 10 mph 1018mb 35f 32f
5:18 8 10 mph 1017.6mb 35f 32f
5:12 8 10 mph 1017.4mb 35f 32f
5:06 7 9 mph 1017.2mb 35f 32f
5:00 8 10 mph 1017.2mb 35f 32f
4:54 9 11 mph 1017mb 35f 32f
4:48 9 13 mph 1017mb 35f 32f
4:42 10 11 mph 1016.8mb 35f 33f
4:36 10 13 mph 1016.7mb 35f 33f
4:30 9 11 mph 1016.7mb 35f 33f
4:24 9 11 mph 1016.5mb 35f 33f
4:18 8 13 mph 1016.6mb 35f 33f
4:12 9 11 mph 1016.6mb 35f 33f
4:06 10 11 mph 1016.7mb 35f 33f
4:00 9 11 mph 1016.4mb 35f 33f
3:54 9 13 mph 1016.4mb 35f 33f
3:48 9 11 mph 1016.4mb 35f 33f
3:42 10 14 mph 1016.3mb 35f 33f
3:36 7 9 mph 1016mb 35f 33f
3:30 8 11 mph 1016mb 35f 33f
3:24 8 10 mph 1016mb 35f 33f
3:18 8 9 mph 1015.9mb 35f 33f
3:12 8 10 mph 1016mb 34f 33f
3:06 9 11 mph 1015.9mb 34f 33f
3:00 9 11 mph 1015.9mb 34f 33f
2:54 11 13 mph 1016mb 35f 33f
2:48 13 14 mph 1016.1mb 34f -
2:42 10 11 mph 1016mb 35f -
2:36 8 10 mph 1015.6mb 35f -
2:30 9 10 mph 1015.5mb 35f 34f
2:24 9 13 mph 1015.6mb 35f 34f
2:18 10 13 mph 1015.7mb 35f 34f
2:12 10 14 mph 1016.1mb 35f 34f
2:06 11 15 mph 1016mb 35f 34f
2:00 9 13 mph 1016mb 35f 34f
1:54 9 13 mph 1015.7mb 35f 34f
1:48 8 11 mph 1015.7mb 35f 34f
1:42 9 11 mph 1016.1mb 35f 34f
1:36 9 10 mph 1015.8mb 35f 34f
1:30 8 11 mph 1015.8mb 35f 34f
1:24 7 10 mph 1015.7mb 35f 34f
1:18 7 8 mph 1015.6mb 35f 34f
1:12 7 9 mph 1015.6mb 35f 35f
1:06 7 13 mph 1015.6mb 35f 35f
1:00 8 11 mph 1015.8mb 35f 35f
12:54 8 13 mph 1015.9mb 35f 35f
12:48 9 11 mph 1015.9mb 35f 35f
12:42 10 11 mph 1016mb 35f 35f
12:36 9 11 mph 1016.1mb 35f 35f
12:30 8 10 mph 1016.1mb 35f 35f
12:24 8 13 mph 1016mb 35f 35f
12:18 9 13 mph 1016.1mb 35f 35f
12:12 10 14 mph 1016.1mb 35f 35f
12:06 9 11 mph 1015.9mb 34f 35f
12:00 9 13 mph 1015.9mb 34f 35f
Sex 03/24 11:54 10 13 mph 1016mb 34f 36f
11:48 9 14 mph 1015.9mb 34f 35f
11:42 10 13 mph 1016.2mb 34f 36f
11:36 10 13 mph 1016.1mb 34f 36f
11:30 8 11 mph 1016.2mb 34f 36f
11:24 8 10 mph 1016.1mb 34f 36f
11:18 7 13 mph 1016.1mb 34f 36f
11:12 9 13 mph 1016.1mb 35f 36f
11:06 8 11 mph 1016mb 35f 36f
11:00 8 11 mph 1016mb 35f 36f
10:54 8 11 mph 1016mb 35f 36f
10:48 8 14 mph 1016mb 35f 36f
10:42 6 8 mph 1016.1mb 35f 37f
10:36 6 13 mph 1016.2mb 34f 37f
10:30 6 10 mph 1016.2mb 34f 37f
10:24 5 10 mph 1016.3mb 34f 37f
10:18 6 14 mph 1016.3mb 34f 37f
10:12 9 14 mph 1016.4mb 34f 37f
10:06 10 17 mph 1016.4mb 34f 37f
10:00 7 15 mph 1016.6mb 34f 37f
9:48 6 13 mph 1016.7mb 35f 37f
9:42 9 14 mph 1016.8mb 35f 37f
9:36 8 14 mph 1017.1mb 35f 37f
9:30 7 13 mph 1017.1mb 35f 36f
9:24 7 13 mph 1017.1mb 35f 36f
9:18 5 14 mph 1017.3mb 35f 36f
9:12 5 13 mph 1017.5mb 35f 36f
9:06 5 15 mph 1017.7mb 35f 36f
9:00 9 14 mph 1017.7mb 35f 36f
8:54 6 13 mph 1017.7mb 35f 36f
8:48 7 22 mph 1017.6mb 35f 36f
8:42 6 15 mph 1017.7mb 35f 36f
8:36 6 14 mph 1017.8mb 35f 35f
8:30 6 14 mph 1017.9mb 35f 35f
8:24 8 14 mph 1018mb 35f 35f
8:18 6 14 mph 1018mb 35f 35f
8:12 5 18 mph 1018.2mb 35f 35f
8:06 10 18 mph 1018.2mb 35f 35f
8:00 6 15 mph 1018.4mb 35f 35f
7:54 11 20 mph 1018.4mb 35f 35f
7:48 9 20 mph 1018.3mb 35f 35f
7:42 8 15 mph 1018.3mb 35f 35f
7:36 6 23 mph 1018.6mb 35f 35f
7:30 15 22 mph 1018.3mb 35f 35f
7:24 10 22 mph 1018.4mb 35f 35f
7:18 9 20 mph 1018.5mb 35f 35f
7:12 10 22 mph 1018.7mb 35f 35f
7:06 10 21 mph 1018.7mb 35f 35f
7:00 9 21 mph 1018.8mb 35f 35f
6:54 10 20 mph 1018.8mb 35f 35f
6:48 15 26 mph 1018.8mb 35f 35f
6:42 7 20 mph 1018.9mb 35f 34f
6:36 10 16 mph 1018.9mb 35f 34f
6:30 10 18 mph 1018.9mb 35f 34f
6:24 6 16 mph 1018.9mb 35f 33f
6:18 9 22 mph 1019.2mb 35f 34f
6:12 9 20 mph 1019.6mb 35f 34f
6:06 10 26 mph 1019.6mb 35f 34f
6:00 9 18 mph 1020mb 35f 33f
5:54 9 20 mph 1020.3mb 35f 33f
5:48 9 17 mph 1020.3mb 35f 33f
5:42 11 17 mph 1020.6mb 35f 33f
5:36 5 16 mph 1020.8mb 35f 33f
5:30 8 18 mph 1020.7mb 35f 33f
5:24 8 16 mph 1020.7mb 35f 33f
5:18 6 13 mph 1020.6mb 35f 32f
5:12 9 16 mph 1020.9mb 35f 32f
5:06 8 11 mph 1021.2mb 35f 32f
5:00 7 22 mph 1021.2mb 35f 32f
4:54 7 22 mph 1021.4mb 35f 32f
4:48 9 23 mph 1021.7mb 35f 32f
4:42 10 17 mph 1021.7mb 35f 32f
4:36 9 17 mph 1021.8mb 34f 32f
4:30 6 10 mph 1021.8mb 35f 32f
4:24 6 11 mph 1022.2mb 35f 31f
4:18 6 11 mph 1022.4mb 34f 32f
4:12 6 11 mph 1022.5mb 34f 32f
4:06 7 13 mph 1022.5mb 35f 32f
4:00 5 13 mph 1022.6mb 34f 32f
3:54 8 13 mph 1022.8mb 34f 32f
3:48 2 9 mph 1022.8mb 34f 32f
3:42 7 15 mph 1022.8mb 34f 32f
3:36 6 11 mph 1023.1mb 34f 32f
3:30 9 13 mph 1023.1mb 34f 32f
3:24 14 22 mph 1023.3mb 34f 32f
3:18 6 16 mph 1023.5mb 34f 32f
3:12 11 18 mph 1023.5mb 34f 32f
3:06 8 15 mph 1023.8mb 34f 31f
3:00 9 17 mph 1023.9mb 34f 31f
2:54 9 21 mph 1024mb 34f 31f
2:48 7 14 mph 1024.2mb 34f 31f
2:42 8 16 mph 1024.4mb 34f 31f
2:36 6 13 mph 1024.6mb 34f 31f
2:30 7 17 mph 1024.7mb 34f 31f
2:24 7 16 mph 1025.1mb 34f 31f
2:18 11 17 mph 1025.1mb 34f 31f
2:12 9 18 mph 1025mb 34f 31f
2:06 6 11 mph 1025.1mb 34f 30f
2:00 6 11 mph 1025.3mb 34f 30f
1:54 5 15 mph 1025.5mb 34f 30f
1:48 8 13 mph 1025.6mb 34f 30f
1:42 3 14 mph 1025.7mb 34f 30f
1:36 6 15 mph 1025.9mb 34f 29f
1:30 6 18 mph 1026.1mb 34f 29f
1:24 5 11 mph 1026.2mb 34f 29f
1:18 3 13 mph 1026.5mb 34f 29f
1:12 5 13 mph 1026.6mb 34f 29f
1:06 6 10 mph 1026.8mb 34f 29f
1:00 8 14 mph 1027.1mb 34f 29f
12:54 8 20 mph 1027.5mb 34f 30f
12:48 6 15 mph 1027.7mb 34f 30f
12:42 8 13 mph 1027.9mb 34f 30f
12:36 6 11 mph 1028.1mb 33f 29f
12:30 5 13 mph 1028.3mb 34f 29f
12:24 7 11 mph 1028.4mb 34f 29f
12:18 7 14 mph 1028.4mb 33f 30f
12:12 8 18 mph 1028.7mb 33f 30f
12:06 9 17 mph 1029mb 33f 31f
12:00 7 20 mph 1029mb 33f 31f
11:54 9 14 mph 1029mb 33f 32f
11:48 10 16 mph 1028.9mb 33f 32f
11:42 8 18 mph 1029mb 33f 32f
11:36 13 18 mph 1029.2mb 33f 32f
11:30 13 20 mph 1029.1mb 33f 32f
11:24 7 17 mph 1029.3mb 33f 32f
11:18 7 11 mph 1029.2mb 33f 32f
11:12 7 14 mph 1029.3mb 33f 32f
11:06 8 13 mph 1029.3mb 33f 32f
11:00 8 18 mph 1029.4mb 33f 32f
10:54 6 14 mph 1029.5mb 33f 32f
10:48 7 14 mph 1029.6mb 33f 31f
10:42 6 10 mph 1029.5mb 33f 31f
10:36 9 17 mph 1029.6mb 33f 31f
10:30 8 13 mph 1029.6mb 33f 31f
10:24 6 11 mph 1029.6mb 33f 31f
10:18 7 13 mph 1029.8mb 33f 31f
10:12 7 15 mph 1029.9mb 33f 31f
10:06 8 14 mph 1030mb 33f 31f
10:00 6 14 mph 1030.3mb 33f 31f
9:54 8 15 mph 1030.3mb 33f 31f
9:48 8 13 mph 1030.5mb 33f 31f
9:42 7 13 mph 1030.6mb 33f 31f
9:36 10 14 mph 1030.6mb 33f 31f
9:30 7 10 mph 1030.7mb 33f 31f
9:24 6 9 mph 1030.8mb 33f 31f
9:18 7 10 mph 1030.7mb 33f 30f
9:12 5 9 mph 1030.6mb 33f 30f
9:06 6 9 mph 1030.4mb 33f 30f
9:00 6 9 mph 1030.5mb 34f 30f
8:54 2 9 mph 1030.4mb 34f 31f
8:48 5 7 mph 1030.5mb 34f 30f
8:42 5 8 mph 1030.4mb 34f 30f
8:36 7 11 mph 1030.5mb 34f 30f
8:30  -  2 mph 1030.7mb 34f 29f
8:24 2 3 mph 1030.6mb 34f 29f
8:18  -  3 mph 1030.6mb 34f 29f
8:12 1 5 mph 1030.5mb 34f 29f
8:06 2 5 mph 1030.5mb 34f 28f
8:00 2 5 mph 1030.5mb 34f 28f
7:54 3 5 mph 1030.5mb 34f 28f
7:48  -  3 mph 1030.5mb 34f 27f
7:42  -  3 mph 1030.5mb 34f 27f
7:36  -  1 mph 1030.6mb 34f 27f
7:30 1 6 mph 1030.7mb 34f 27f
7:24 2 3 mph 1030.7mb 34f 26f
7:18  -  2 mph 1030.7mb 34f 26f
7:12 2 3 mph 1030.7mb 34f 26f
7:06 1 3 mph 1030.8mb 34f 27f
7:00 2 3 mph 1031mb 34f 27f
6:54 1 3 mph 1031mb 34f 26f
6:48 3 6 mph 1031mb 34f 26f
6:42 3 6 mph 1031.2mb 34f 26f
6:36 1 6 mph 1031.4mb 34f 26f
6:30 2 6 mph 1031.5mb 34f 26f
6:24 3 6 mph 1031.6mb 34f 26f
6:18 2 6 mph 1031.7mb 34f 26f
6:12 3 6 mph 1031.6mb 34f 26f
6:06 2 5 mph 1031.4mb 34f 25f
6:00 2 6 mph 1031.4mb 34f 25f
5:54 2 5 mph 1031.4mb 34f 25f
5:48 5 7 mph 1031.3mb 34f 25f
5:42 3 7 mph 1031.2mb 34f 25f
5:36 5 8 mph 1031.2mb 34f 25f
5:30 5 7 mph 1031.3mb 34f 25f
5:24 5 7 mph 1031.3mb 34f 25f
5:18 6 8 mph 1031.2mb 34f 25f
5:12 5 8 mph 1031.1mb 34f 24f
5:06 7 9 mph 1031.2mb 34f 24f
5:00 5 8 mph 1031.2mb 34f 24f
4:54 7 9 mph 1031.2mb 34f 24f
4:48 7 10 mph 1031.2mb 34f 24f
4:42 7 10 mph 1031mb 34f 24f
4:36 7 10 mph 1030.9mb 34f 24f
4:30 9 11 mph 1030.7mb 34f 24f
4:24 10 13 mph 1030.5mb 34f 24f
4:18 10 13 mph 1030.5mb 34f 24f
4:12 8 10 mph 1030.6mb 34f 24f
4:06 8 10 mph 1030.6mb 34f 24f
4:00 7 11 mph 1030.7mb 34f 23f
3:54 9 13 mph 1030.7mb 34f 23f
3:48 10 14 mph 1030.7mb 34f 23f
3:42 7 10 mph 1030.7mb 34f 22f
3:36 8 13 mph 1030.7mb 34f 22f
3:30 10 13 mph 1030.9mb 34f 22f
3:24 9 14 mph 1030.9mb 34f 22f
3:18 8 13 mph 1030.9mb 34f 22f
3:12 9 13 mph 1031mb 34f 22f
3:06 7 13 mph 1031.1mb 34f 23f
3:00 9 11 mph 1031mb 34f 23f
2:54 8 13 mph 1031.1mb 34f 23f
2:48 7 9 mph 1031.1mb 34f 23f
2:42 6 8 mph 1031.2mb 34f 23f
2:36 7 9 mph 1031.2mb 34f 23f
2:30 7 14 mph 1031.5mb 34f 23f
2:24 8 13 mph 1031.4mb 34f 23f
2:18 6 10 mph 1031.4mb 34f 23f
2:12 7 11 mph 1031.4mb 34f 23f
2:06 6 10 mph 1031.4mb 33f 23f
2:00 6 9 mph 1031.4mb 33f 23f
1:54 6 8 mph 1031.4mb 33f 23f
1:48 5 9 mph 1031.3mb 33f -
1:42 6 11 mph 1031.3mb 33f -
1:36 7 10 mph 1031.3mb 33f -
1:30 7 10 mph 1031.4mb 33f 22f
1:24 7 10 mph 1031.4mb 33f 22f
1:18 8 11 mph 1031.4mb 33f 22f
1:12 9 13 mph 1031.5mb 33f 22f
1:06 9 14 mph 1031.4mb 33f 22f
1:00 10 14 mph 1031.5mb 33f 22f
12:54 9 13 mph 1031.4mb 33f 22f
12:48 9 14 mph 1031.3mb 33f 22f
12:42 9 14 mph 1031.4mb 33f 22f
12:36 8 13 mph 1031.3mb 33f 22f
12:30 9 11 mph 1031.4mb 33f 22f
12:24 8 13 mph 1031.4mb 33f 22f
12:18 9 13 mph 1031.3mb 33f 22f
12:12 8 13 mph 1031.1mb 33f 22f
12:06 8 10 mph 1031mb 33f 22f
12:00 8 13 mph 1030.9mb 33f 22f
Qui 03/23 11:54 9 11 mph 1030.9mb 33f 22f
11:48 8 11 mph 1031mb 33f 22f
11:42 8 11 mph 1030.9mb 33f 22f
11:36 5 8 mph 1030.9mb 33f 22f
11:30 6 10 mph 1030.9mb 33f 22f
11:24 8 10 mph 1030.9mb 33f 22f
11:18 6 9 mph 1030.7mb 33f 22f
11:12 7 11 mph 1030.8mb 33f 22f
11:06 10 15 mph 1030.7mb 33f 23f
11:00 13 14 mph 1030.5mb 33f 24f
10:54 10 13 mph 1030.6mb 33f 24f
10:48 9 11 mph 1030.7mb 33f 23f
10:42 8 11 mph 1030.8mb 33f 23f
10:36 9 13 mph 1030.7mb 33f 23f
10:30 11 15 mph 1030.6mb 33f 24f
10:24 11 14 mph 1030.6mb 33f 24f
10:18 13 16 mph 1030.7mb 33f 24f
10:12 11 15 mph 1030.8mb 33f 24f
10:06 14 17 mph 1030.7mb 34f 24f
10:00 15 18 mph 1030.6mb 34f 24f
9:54 14 20 mph 1030.5mb 34f 24f
9:48 16 21 mph 1030.4mb 34f 24f
9:42 15 21 mph 1030.3mb 34f 24f
9:36 17 22 mph 1030.2mb 34f 25f
9:30 17 22 mph 1030.1mb 34f 25f
9:24 18 22 mph 1030.1mb 34f 25f
9:18 17 22 mph 1030.1mb 34f 25f
9:12 18 23 mph 1030mb 34f 25f
9:06 17 22 mph 1030mb 34f 25f
9:00 18 22 mph 1029.9mb 34f 25f
8:54 17 23 mph 1029.8mb 34f 25f
8:48 16 22 mph 1029.7mb 34f 25f
8:42 17 22 mph 1029.5mb 34f 25f
8:36 18 23 mph 1029.3mb 34f 25f
8:30 20 29 mph 1029.2mb 34f 25f
8:24 20 24 mph 1029.1mb 34f 26f
8:18 17 22 mph 1028.9mb 34f 26f
8:12 16 22 mph 1028.8mb 34f 26f
8:06 20 23 mph 1028.5mb 34f 26f
8:00 22 25 mph 1028.2mb 34f 26f
7:54 22 26 mph 1028mb 34f 26f
7:48 24 28 mph 1027.8mb 34f 26f
7:42 20 25 mph 1027.8mb 34f 26f
7:36 23 29 mph 1027.5mb 34f 27f
7:30 20 26 mph 1027.4mb 34f 27f
7:24 21 25 mph 1027.2mb 34f 27f
7:18 21 26 mph 1027.1mb 34f 27f
7:12 22 26 mph 1026.9mb 34f 27f
7:06 20 24 mph 1026.8mb 34f 27f
7:00 20 24 mph 1026.7mb 34f 27f
6:54 20 24 mph 1026.6mb 35f 27f
6:48 20 23 mph 1026.5mb 35f 27f
6:42 22 28 mph 1026.3mb 35f 28f
6:36 21 24 mph 1026.3mb 34f 28f
6:30 22 25 mph 1026.2mb 34f 28f
6:24 20 25 mph 1026.1mb 34f 28f
6:18 21 24 mph 1026mb 34f 28f
6:12 21 26 mph 1025.8mb 34f 28f
6:06 20 26 mph 1025.7mb 34f 29f
6:00 23 33 mph 1025.6mb 34f 28f
5:54 25 32 mph 1025.3mb 34f 28f
5:48 24 29 mph 1025.1mb 34f 28f
5:42 20 28 mph 1025.2mb 34f 28f
5:36 22 25 mph 1025.1mb 34f 28f
5:30 22 26 mph 1025.1mb 34f 28f
5:24 23 30 mph 1025mb 34f 29f
5:18 23 29 mph 1025mb 34f 29f
5:12 20 29 mph 1025mb 34f 28f
5:06 23 31 mph 1024.7mb 34f 28f
5:00 25 31 mph 1024.5mb 34f 28f
4:54 21 28 mph 1024.8mb 34f 28f
4:48 23 31 mph 1024.6mb 34f 28f
4:42 25 30 mph 1024.3mb 35f 28f
4:36 20 26 mph 1024.5mb 35f 28f
4:30 21 25 mph 1024.3mb 35f 28f
4:24 23 29 mph 1024.4mb 35f 28f
4:18 24 26 mph 1024.1mb 34f 28f
4:12 20 26 mph 1024.4mb 34f 28f
4:06 21 24 mph 1024.2mb 34f 28f
4:00 23 28 mph 1024.1mb 34f 28f
3:54 21 29 mph 1024.1mb 34f 28f
3:48 22 26 mph 1024.1mb 34f 28f
3:42 21 26 mph 1024mb 34f 28f
3:36 22 29 mph 1024mb 34f 27f
3:30 22 28 mph 1023.9mb 33f 27f
3:24 25 30 mph 1023.8mb 32f 27f
3:18 21 28 mph 1024mb 32f 26f
3:12 18 29 mph 1023.9mb 32f 27f
3:06 20 26 mph 1023.9mb 33f 26f
3:00 21 28 mph 1023.8mb 33f 26f
2:54 18 31 mph 1023.9mb 32f 26f
2:48 21 31 mph 1023.7mb 32f 26f
2:42 24 31 mph 1023.7mb 32f 26f
2:36 23 32 mph 1023.6mb 32f 26f
2:30 24 31 mph 1023.5mb 32f 26f
2:24 18 28 mph 1023.8mb 32f 25f
2:18 22 29 mph 1023.6mb 32f 25f
2:12 21 25 mph 1023.6mb 32f 25f
2:06 18 23 mph 1023.8mb 32f 25f
2:00 17 26 mph 1024mb 32f 24f
1:54 15 24 mph 1024.2mb 32f 24f
1:48 20 25 mph 1024.1mb 32f 24f
1:42 16 26 mph 1024.3mb 32f 24f
1:36 22 25 mph 1024.2mb 32f 24f
1:30 18 24 mph 1024.3mb 32f 24f
1:24 21 28 mph 1024.3mb 32f 23f
1:18 20 26 mph 1024.2mb 32f 23f
1:12 23 26 mph 1024.3mb 32f 23f
1:06 21 25 mph 1024.3mb 32f 22f
1:00 16 25 mph 1024.4mb 32f 22f
12:54 21 26 mph 1024.3mb 32f 22f
12:48 21 25 mph 1024.3mb 31f 22f
12:42 21 28 mph 1024.3mb 32f 22f
12:36 24 29 mph 1024.2mb 31f 21f
12:30 24 29 mph 1024.1mb 31f 21f
12:24 21 25 mph 1024.3mb 31f 21f
12:18 18 26 mph 1024.5mb 31f 21f
12:12 18 25 mph 1024.5mb 31f 21f
12:06 20 28 mph 1024.6mb 31f 20f
12:00 22 31 mph 1024.7mb 31f 20f
11:54 24 28 mph 1024.5mb 31f 20f
11:48 26 31 mph 1024.5mb 31f 19f
11:42 28 33 mph 1024.3mb 31f 19f
11:36 21 26 mph 1024.6mb 31f 19f
11:30 21 28 mph 1024.6mb 31f 19f
11:24 24 29 mph 1024.5mb 31f 19f
11:18 21 30 mph 1024.7mb 31f 18f
11:12 18 29 mph 1024.7mb 31f 18f
11:06 23 30 mph 1024.6mb 31f 18f
11:00 22 30 mph 1024.7mb 31f 17f
10:54 24 31 mph 1024.6mb 31f 17f
10:48 22 29 mph 1024.9mb 31f 17f
10:42 24 29 mph 1024.7mb 31f 17f
10:36 20 29 mph 1024.7mb 31f 17f
10:30 25 31 mph 1024.6mb 31f 17f
10:24 18 29 mph 1024.8mb 31f 16f
10:18 23 31 mph 1024.8mb 31f 16f
10:12 22 29 mph 1024.8mb 31f 16f
10:06 21 26 mph 1024.6mb 31f 16f
10:00 21 33 mph 1024.8mb 31f 16f
9:54 26 30 mph 1024.6mb 31f 16f
9:48 22 30 mph 1024.7mb 31f 15f
9:42 24 30 mph 1024.6mb 31f 16f
9:36 29 33 mph 1024.6mb 31f 15f
9:30 22 34 mph 1024.8mb 31f 15f
9:24 23 32 mph 1024.7mb 31f 15f
9:18 24 34 mph 1024.7mb 31f 15f
9:12 28 32 mph 1024.4mb 31f 15f
9:06 29 39 mph 1024.4mb 31f 14f
9:00 28 34 mph 1024.3mb 31f 15f
8:54 25 31 mph 1024.5mb 31f 14f
8:48 29 36 mph 1024.5mb 31f 14f
8:42 24 29 mph 1024.4mb 31f 14f
8:36 26 32 mph 1024.4mb 31f 14f
8:30 26 32 mph 1024.4mb 31f 14f
8:24 23 33 mph 1024.4mb 31f 13f
8:18 25 29 mph 1024.4mb 31f 13f
8:12 24 33 mph 1024.3mb 31f 13f
8:06 28 30 mph 1024.2mb 31f 13f
8:00 22 30 mph 1024.3mb 31f 13f
7:54 28 33 mph 1024.1mb 31f 13f
7:48 25 30 mph 1024.1mb 31f 13f
7:42 28 32 mph 1024mb 31f 13f
7:36 23 30 mph 1024mb 31f 13f
7:30 24 33 mph 1023.9mb 31f 13f
7:24 23 34 mph 1023.7mb 31f 13f
7:18 25 34 mph 1023.6mb 31f 13f
7:12 26 32 mph 1023.4mb 31f 13f
7:06 26 33 mph 1023.4mb 31f 13f
7:00 24 32 mph 1023.4mb 31f 13f
6:54 26 32 mph 1023.3mb 31f 14f
6:48 25 31 mph 1023.1mb 31f 13f
6:42 26 31 mph 1023mb 31f 13f
6:36 23 29 mph 1022.9mb 31f 13f
6:30 24 31 mph 1022.7mb 31f 13f
6:24 26 30 mph 1022.5mb 31f 13f
6:18 24 29 mph 1022.5mb 31f 13f
6:12 22 29 mph 1022.5mb 31f 13f
6:06 25 30 mph 1022.4mb 31f 12f
6:00 26 31 mph 1022.3mb 31f 13f
5:54 24 32 mph 1022.1mb 31f 13f
5:48 25 30 mph 1022mb 31f 13f
5:42 24 29 mph 1022mb 31f 13f
5:36 26 30 mph 1021.9mb 31f 13f
5:30 26 30 mph 1021.8mb 32f 13f
5:24 24 29 mph 1021.8mb 32f 13f
5:18 22 31 mph 1021.6mb 32f 15f
5:12 25 33 mph 1021.5mb 32f 14f
5:06 28 34 mph 1021.3mb 33f 13f
5:00 25 31 mph 1021.1mb 33f 14f
4:54 26 31 mph 1021.1mb 32f 13f
4:48 25 32 mph 1021mb 33f 14f
4:42 29 37 mph 1020.8mb 33f 14f
4:36 25 36 mph 1020.8mb 32f 14f
4:30 26 36 mph 1020.7mb 33f 14f
4:24 25 34 mph 1020.7mb 32f 14f
4:18 26 33 mph 1020.6mb 32f 13f
4:12 29 37 mph 1020.5mb 31f 14f
4:06 28 33 mph 1020.4mb 32f 14f
4:00 25 32 mph 1020.5mb 32f 14f
3:54 29 36 mph 1020.2mb 31f 14f
3:48 29 38 mph 1020.3mb 31f 14f
3:42 28 37 mph 1020.2mb 32f 15f
3:36 28 36 mph 1020.1mb 31f 14f
3:30 29 33 mph 1020.2mb 31f 14f
3:24 26 36 mph 1020.2mb 31f 14f
3:18 26 33 mph 1020.1mb 31f 14f
3:12 26 36 mph 1020mb 30f 14f
3:06 31 37 mph 1019.7mb 31f 14f
3:00 30 39 mph 1019.6mb 31f 15f
2:54 29 43 mph 1019.5mb 30f 15f
2:48 32 43 mph 1019.4mb 31f -
2:42 30 45 mph 1019.3mb 31f -
2:36 29 45 mph 1019.4mb 31f -
2:30 31 41 mph 1019.2mb 31f 14f
2:24 32 44 mph 1019mb 31f 15f
2:18 28 38 mph 1019mb 31f 15f
2:12 30 41 mph 1019mb 31f 15f
2:06 29 43 mph 1018.9mb 31f 15f
2:00 29 39 mph 1018.7mb 31f 15f
1:54 29 38 mph 1019mb 31f 15f
1:48 29 43 mph 1019mb 31f -
1:42 31 43 mph 1018.9mb 31f -
1:36 34 45 mph 1018.7mb 31f -
1:30 29 39 mph 1018.7mb 31f 15f
1:24 32 40 mph 1018.4mb 32f 14f
1:18 30 47 mph 1018.5mb 32f 15f
1:12 36 46 mph 1018.4mb 32f 15f
1:06 29 46 mph 1018.5mb 32f 15f
1:00 33 45 mph 1018.1mb 31f 15f
12:54 36 45 mph 1018.1mb 31f 15f
12:48 29 40 mph 1018.3mb 32f 15f
12:42 29 38 mph 1018.2mb 32f 16f
12:36 28 40 mph 1018.3mb 32f 15f
12:30 33 46 mph 1017.9mb 32f 15f
12:24 32 41 mph 1017.7mb 32f 15f
12:18 33 44 mph 1017.7mb 32f 15f
12:12 32 44 mph 1017.5mb 33f 15f
12:06 33 43 mph 1017.5mb 33f 15f
12:00 30 45 mph 1017.6mb 33f 16f
Qua 03/22 11:54 29 39 mph 1017.3mb 33f 16f
11:48 31 38 mph 1017.4mb 33f 16f
11:42 33 41 mph 1017.1mb 33f 16f
11:36 31 40 mph 1017.2mb 33f 16f
11:30 30 41 mph 1017.3mb 33f 16f
11:24 29 38 mph 1017.2mb 33f 17f
11:18 32 46 mph 1017.1mb 33f 17f
11:12 38 48 mph 1016.5mb 33f 17f
11:06 28 37 mph 1016.8mb 33f 18f
11:00 29 43 mph 1016.6mb 33f 18f
10:54 31 43 mph 1016.4mb 33f 18f
10:48 34 43 mph 1016.1mb 33f 18f
10:42 33 39 mph 1016mb 33f 18f
10:36 28 36 mph 1016mb 33f 18f
10:30 31 39 mph 1015.7mb 33f 18f
10:24 31 37 mph 1015.5mb 33f 18f
10:18 31 37 mph 1015.4mb 33f 18f
10:12 32 40 mph 1015.4mb 33f 18f
10:06 32 39 mph 1015.3mb 33f 18f
10:00 31 37 mph 1015.3mb 33f 19f
9:54 31 36 mph 1015.1mb 33f 19f
9:48 29 39 mph 1015.1mb 33f 19f
9:42 30 37 mph 1014.8mb 33f 19f
9:36 29 39 mph 1014.9mb 33f 19f
9:30 30 38 mph 1014.7mb 33f 19f
9:24 31 39 mph 1014.6mb 33f 19f
9:18 34 43 mph 1014.3mb 33f 19f
9:12 32 43 mph 1014.3mb 33f 19f
9:06 32 40 mph 1014.2mb 33f 20f
9:00 31 41 mph 1014.1mb 33f 19f
8:54 36 45 mph 1013.8mb 33f 20f
8:48 36 46 mph 1013.7mb 34f 19f
8:42 31 40 mph 1013.8mb 34f 20f
8:36 33 41 mph 1013.5mb 34f 20f
8:30 32 38 mph 1013.5mb 34f 20f
8:24 34 40 mph 1013.3mb 34f 20f
8:18 36 43 mph 1013.3mb 34f 20f
8:12 34 45 mph 1013mb 34f 20f
8:06 36 43 mph 1012.8mb 34f 20f
8:00 34 41 mph 1012.7mb 34f 20f
7:54 33 41 mph 1012.6mb 34f 21f
7:48 37 43 mph 1012.2mb 34f 21f
7:42 38 45 mph 1011.9mb 34f 21f
7:36 32 41 mph 1012mb 34f 21f
7:30 37 48 mph 1011.7mb 34f 21f
7:24 36 43 mph 1011.6mb 34f 21f
7:18 36 45 mph 1011.5mb 34f 21f
7:12 36 45 mph 1011.5mb 34f 21f
7:06 36 44 mph 1011.2mb 34f 21f
7:00 31 38 mph 1011.2mb 34f 21f
6:54 33 40 mph 1011.1mb 34f 21f
6:48 31 41 mph 1010.9mb 34f 21f
6:42 29 39 mph 1010.8mb 34f 21f
6:36 31 43 mph 1010.6mb 34f 21f
6:30 31 44 mph 1010.4mb 34f 21f
6:24 37 43 mph 1010.2mb 34f 21f
6:18 34 46 mph 1010.1mb 34f 21f
6:12 32 44 mph 1009.9mb 34f 20f
6:06 40 48 mph 1009.6mb 34f 21f
6:00 39 44 mph 1009.5mb 34f 21f
5:54 36 44 mph 1009.5mb 34f 21f
5:48 33 44 mph 1009.3mb 34f 21f
5:42 36 40 mph 1009.1mb 34f 20f
5:36 32 41 mph 1009mb 34f 20f
5:30 33 43 mph 1008.9mb 34f 21f
5:24 33 40 mph 1008.7mb 33f 21f
5:18 33 39 mph 1008.5mb 33f 21f
5:12 36 43 mph 1008.4mb 33f 20f
5:06 36 44 mph 1008.3mb 34f 20f
5:00 36 44 mph 1008.1mb 34f 20f
4:54 37 43 mph 1007.9mb 34f 20f
4:48 31 41 mph 1008mb 34f 21f
4:42 33 41 mph 1007.8mb 34f 21f
4:36 34 41 mph 1007.6mb 34f 21f
4:30 31 43 mph 1007.6mb 34f 21f
4:24 37 43 mph 1007.3mb 34f 21f
4:18 33 41 mph 1007.3mb 35f 21f
4:12 29 40 mph 1007.5mb 35f 21f
4:06 33 41 mph 1007.3mb 35f 21f
4:00 34 41 mph 1007.2mb 35f 21f
3:54 31 37 mph 1007mb 35f 21f
3:48 28 36 mph 1007.2mb 35f 21f
3:42 29 36 mph 1007mb 35f 21f
3:36 28 36 mph 1006.9mb 35f 22f
3:30 28 34 mph 1007mb 35f 21f
3:24 31 38 mph 1006.9mb 34f 21f
3:18 31 37 mph 1006.8mb 34f 21f
3:12 31 41 mph 1006.6mb 34f 21f
3:06 29 37 mph 1006.6mb 34f 22f
3:00 32 40 mph 1006.3mb 34f 21f
2:54 34 41 mph 1006.3mb 34f 20f
2:48 29 38 mph 1006.3mb 34f 21f
2:42 28 36 mph 1006.3mb 34f 21f
2:36 32 38 mph 1006.3mb 34f 21f
2:30 29 36 mph 1006.2mb 34f 21f
2:24 32 36 mph 1006.1mb 34f 21f
2:18 31 41 mph 1006mb 34f 22f
2:12 31 39 mph 1006mb 34f 21f
2:06 34 39 mph 1005.9mb 34f 21f
2:00 28 37 mph 1006mb 34f 22f
1:54 29 36 mph 1005.9mb 34f 22f
1:48 29 33 mph 1006mb 34f 22f
1:42 26 34 mph 1005.9mb 35f 22f
1:36 32 39 mph 1005.8mb 35f 22f
1:30 28 34 mph 1005.8mb 35f 23f
1:24 29 36 mph 1005.8mb 35f 22f
1:18 30 37 mph 1005.6mb 35f 22f
1:12 32 38 mph 1005.5mb 35f 23f
1:06 29 33 mph 1005.5mb 35f 23f
1:00 29 38 mph 1005.6mb 35f 22f
12:54 30 34 mph 1005.3mb 35f 22f
12:48 23 30 mph 1005.6mb 35f 22f
12:42 24 29 mph 1005.5mb 35f 22f
12:36 24 30 mph 1005.3mb 35f 22f
12:30 26 31 mph 1005.4mb 35f 22f
12:24 25 32 mph 1005.4mb 35f 22f
12:18 25 31 mph 1005.3mb 35f 23f
12:12 26 31 mph 1005.3mb 35f 22f
12:06 25 32 mph 1005.3mb 35f 22f
12:00 25 33 mph 1005.4mb 35f 23f
11:54 28 34 mph 1005.2mb 35f 23f
11:48 24 33 mph 1005.3mb 35f 24f
11:42 24 30 mph 1005.2mb 35f 24f
11:36 26 32 mph 1005.1mb 35f 24f
11:30 23 33 mph 1004.9mb 35f 25f
11:24 28 34 mph 1004.7mb 35f 25f
11:18 25 31 mph 1004.6mb 35f 27f
11:12 26 32 mph 1004.3mb 35f 28f
11:06 23 29 mph 1004.5mb 35f 28f
11:00 28 31 mph 1004.1mb 35f 28f
10:54 25 29 mph 1004.1mb 35f 28f
10:48 24 29 mph 1004mb 35f 30f
10:42 22 31 mph 1003.8mb 35f 30f
10:36 18 25 mph 1003.7mb 35f 32f
10:30 9 16 mph 1003.7mb 35f 34f
10:24 11 16 mph 1003.6mb 35f 34f
10:18 13 21 mph 1003.5mb 35f 35f
10:12 14 17 mph 1003.5mb 35f 36f
10:06 10 16 mph 1003.4mb 35f 38f
10:00 2 5 mph 1003.2mb 35f 37f
9:54 5
mph
1003.1mb 35f 36f
9:48 3
mph
1003mb 35f 36f
9:42 3 6 mph 1002.9mb 35f 37f
9:36 5 8 mph 1002.9mb 35f 37f
9:30 6 8 mph 1002.9mb 35f 38f
9:24 6 8 mph 1002.9mb 35f 38f
9:18 3 6 mph 1002.9mb 35f 38f
9:06 8 10 mph 1002.9mb 35f 38f
9:00 10 11 mph 1002.9mb 35f 38f
8:54 9 10 mph 1002.9mb 35f 38f
8:48 6 9 mph 1002.9mb 35f 38f
8:42 5 8 mph 1002.9mb 35f 38f
8:36 7 8 mph 1002.9mb 35f 38f
8:30 6 7 mph 1002.9mb 35f 38f
8:24 5 6 mph 1002.8mb 35f 38f
8:18 5 6 mph 1002.8mb 35f 38f
8:12 5 7 mph 1002.8mb 35f 38f
8:06 2 6 mph 1002.9mb 35f 38f
7:54 6 8 mph 1002.8mb 35f 37f
7:48 6 8 mph 1002.9mb 35f 37f
7:36 6 7 mph 1002.8mb 35f 37f
7:30 5 6 mph 1002.8mb 35f 37f
7:24 2 5 mph 1002.9mb 35f 37f
7:18 2 7 mph 1003mb 35f 37f
7:06 3 7 mph 1003mb 35f 36f
7:00 5 7 mph 1003.1mb 35f 35f
6:54 3 6 mph 1003.1mb 35f 35f
6:48 1 5 mph 1003.2mb 35f 35f
6:42 3 5 mph 1003.3mb 35f 35f
6:36 3 6 mph 1003.3mb 35f 34f
6:30 2 6 mph 1003.3mb 35f 34f
6:18 5 7 mph 1003.4mb 35f 34f
6:12 6 8 mph 1003.4mb 35f 34f
6:06 6 8 mph 1003.4mb 35f 35f
6:00 5 7 mph 1003.5mb 35f 35f
5:54 5 8 mph 1003.5mb 35f 35f
5:48 6 9 mph 1003.5mb 35f -
5:42 6 8 mph 1003.5mb 35f 36f
5:36 5 7 mph 1003.5mb 35f 36f
5:30 6 8 mph 1003.5mb 35f 36f
5:24 7 9 mph 1003.4mb 35f 36f
5:18 6 9 mph 1003.4mb 35f 36f
5:12 8 10 mph 1003.4mb 35f 35f
5:06 7 9 mph 1003.4mb 35f 35f
5:00 6 10 mph 1003.4mb 35f 35f
4:54 7 9 mph 1003.4mb 35f 35f
4:48 7 10 mph 1003.3mb 35f 35f
4:42 7 9 mph 1003.3mb 35f 35f
4:36 6 9 mph 1003.3mb 35f 35f
4:30 6 9 mph 1003.3mb 35f 36f
4:24 6 8 mph 1003.4mb 35f 36f
4:18 6 8 mph 1003.4mb 35f 36f
4:12 7 8 mph 1003.5mb 35f 36f
4:06 6 9 mph 1003.6mb 35f 36f
4:00 6 9 mph 1003.7mb 35f 36f
3:54 6 9 mph 1003.8mb 35f 36f
3:48 6 8 mph 1003.7mb 35f -
3:42 7 9 mph 1003.7mb 35f 37f
3:36 7 8 mph 1003.7mb 35f 37f
3:24 8 10 mph 1003.8mb 35f 38f
3:18 6 9 mph 1003.9mb 35f 38f
3:12 7 8 mph 1003.9mb 35f 38f
3:06 6 8 mph 1003.9mb 35f 38f
3:00 2 5 mph 1003.9mb 35f 37f
2:54 2 3 mph 1004mb 35f 37f
2:48 2
mph
1004.2mb 35f -
2:42 3 6 mph 1004.3mb 35f -
2:36 5 6 mph 1004.3mb 35f -
2:30 5 6 mph 1004.3mb 35f 38f
2:24 5 6 mph 1004.4mb 35f 38f
2:18 3 5 mph 1004.5mb 35f 38f
2:12 2 3 mph 1004.5mb 35f 38f
2:06 2 5 mph 1004.6mb 35f 39f
2:00  -  6 mph 1004.6mb 35f 39f
1:54 1 3 mph 1004.6mb 35f 39f
1:48 2 6 mph - - -
1:42 3 6 mph - - -
1:36 3 7 mph - - -
1:30 6 7 mph 1004.8mb 35f 39f
1:24 3 8 mph 1004.8mb 35f 39f
1:12 2 3 mph 1004.9mb 35f 38f
1:06 3 5 mph 1005mb 35f 38f
1:00 1 2 mph 1005.1mb 35f 37f
12:54  -  2 mph 1005.2mb 35f 37f
12:48 1 3 mph 1005.3mb 35f 37f
12:42 3 5 mph 1005.3mb 35f 37f
12:36 2 3 mph 1005.2mb 35f 37f
12:30 2 3 mph 1005.3mb 35f 39f
12:24 2 3 mph 1005.4mb 35f 39f
12:18 3 6 mph 1005.5mb 35f 39f
12:12 3 6 mph 1005.7mb 35f 39f
12:06 2 5 mph 1005.7mb 35f 38f
12:00 2 6 mph 1005.7mb 35f 40f
Ter 03/21 11:54 5 6 mph 1005.7mb 35f 40f
11:48 5 7 mph 1005.8mb 35f 40f
11:36 5 7 mph 1005.9mb 35f 40f
11:30 6 8 mph 1006mb 35f 40f
11:24 6 9 mph 1006.1mb 35f 40f
11:18 7 9 mph 1006.1mb 35f 40f
11:12 8 9 mph 1006.2mb 35f 40f
11:06 7 9 mph 1006.2mb 35f 39f
11:00 8 11 mph 1006.3mb 35f 39f
10:54 7 10 mph 1006.4mb 35f 39f
10:48 7 11 mph 1006.4mb 35f 39f
10:42 7 10 mph 1006.4mb 35f 39f
10:36 7 10 mph 1006.4mb 35f 39f
10:30 6 8 mph 1006.5mb 35f 40f
10:24 6 7 mph 1006.5mb 35f 40f
10:18 6 8 mph 1006.5mb 35f 41f
10:12 5 7 mph 1006.5mb 35f 40f
10:00 6 7 mph 1006.4mb 35f 40f
9:54 6 8 mph 1006.5mb 35f 41f
9:48 6 8 mph 1006.5mb 35f 41f
9:42 5 7 mph 1006.5mb 35f 41f
9:36 5 8 mph 1006.6mb 35f 40f
9:30 5 8 mph 1006.6mb 35f 40f
9:24 5 6 mph 1006.6mb 35f 40f
9:18 2 3 mph 1006.7mb 35f 39f
9:12  -  2 mph 1006.8mb 35f 39f
9:06 1 2 mph 1006.7mb 35f 39f
9:00  -  2 mph 1006.7mb 35f 40f
8:54  -  3 mph 1006.8mb 35f 40f
8:48 2 6 mph 1006.9mb 35f 40f
8:42  -  2 mph 1007mb 35f 40f
8:36  -  mph 1006.9mb 35f 40f
8:24  -  2 mph 1006.9mb 35f 40f
8:18 2
mph
1006.9mb 35f 40f
8:12 2
mph
1006.8mb 35f 40f
8:06  -  mph 1006.8mb 35f 41f
8:00  -  mph 1006.8mb 35f 41f
7:54  -  3 mph 1006.8mb 35f 41f
7:48 1 2 mph 1006.8mb 35f 41f
7:42 1 2 mph 1006.8mb 35f 41f
7:36 2 3 mph 1006.8mb 35f 41f
7:30 3 6 mph 1006.8mb 35f 41f
7:24 3 7 mph 1006.9mb 35f 41f
7:12 5 8 mph 1006.8mb 35f 41f
7:06 6 10 mph 1006.7mb 35f 42f
7:00 7 13 mph 1006.7mb 35f 41f
6:54 9 15 mph 1006.6mb 35f 42f
6:48 8 11 mph 1006.6mb 36f 42f
6:42 8 11 mph 1006.5mb 35f 42f
6:36 8 14 mph 1006.5mb 35f 42f
6:30 9 13 mph 1006.5mb 35f 42f
6:24 10 16 mph 1006.4mb 35f 42f
6:18 9 15 mph 1006.3mb 35f 42f
6:12 11 14 mph 1006.3mb 35f 42f
6:06 10 16 mph 1006.2mb 35f 42f
6:00 9 15 mph 1006.2mb 35f 43f
5:54 9 15 mph 1006.2mb 35f 43f
5:48 9 17 mph 1006mb 35f 43f
5:42 9 15 mph 1006mb 35f 43f
5:36 13 17 mph 1005.8mb 35f 44f
5:30 8 14 mph 1005.9mb 35f 44f
5:24 11 14 mph 1005.9mb 35f 44f
5:18 9 13 mph 1005.8mb 35f 44f
5:12 10 18 mph 1005.8mb 35f 44f
5:06 11 18 mph 1005.8mb 35f 44f
5:00 9 15 mph 1005.8mb 35f 45f
4:54 8 14 mph 1005.8mb 35f 45f
4:48 11 15 mph 1005.6mb 35f 45f
4:42 9 11 mph 1005.6mb 35f 45f
4:36 8 14 mph 1005.7mb 35f 45f
4:30 8 11 mph 1005.7mb 35f 46f
4:24 7 11 mph 1005.7mb 35f 46f
4:18 10 14 mph 1005.7mb 35f 46f
4:12 10 15 mph 1005.6mb 35f 46f
4:06 13 16 mph 1005.5mb 35f 46f
4:00 9 11 mph 1005.6mb 35f 46f
3:54 10 14 mph 1005.6mb 35f 45f
3:48 8 11 mph 1005.5mb 35f 45f
3:42 10 14 mph 1005.4mb 35f 46f
3:36 9 10 mph 1005.4mb 35f 45f
3:24 7 10 mph 1005.6mb 35f 45f
3:18 10 11 mph 1005.5mb 35f 46f
3:12 8 11 mph 1005.6mb 35f 45f
3:06 9 14 mph 1005.7mb 36f 45f
3:00 10 15 mph 1005.7mb 36f 45f
2:54 11 15 mph 1005.7mb 36f 45f
2:48 9 13 mph 1005.7mb 36f 45f
2:42 9 11 mph 1005.6mb 36f 45f
2:36 8 9 mph 1005.6mb 36f 44f
2:30 8 10 mph 1005.7mb 36f 45f
2:24 7 10 mph 1005.7mb 36f 45f
2:18 7 9 mph 1005.8mb 36f 45f
2:12 6 8 mph 1005.9mb 36f 45f
2:06 8 10 mph 1006mb 36f 45f
2:00 6 7 mph 1006.1mb 36f 44f